Kabul, Afghanistan

2:18 AM +0430 on March 31, 2017 (GMT +0430)
Kabul

Weather History for OAKB - January, 2014

Change the Weather History Date:

Friday, January 31, 2014

  Actual Average Record
Temperature  
Mean Temperature 42 °F -  
Max Temperature 50 °F 42 °F - ()
Min Temperature 35 °F 22 °F - ()
Degree Days  
Heating Degree Days 22    
Moisture  
Dew Point 29 °F    
Average Humidity 61    
Maximum Humidity 76    
Minimum Humidity 40    
Precipitation  
Precipitation 0.00 in 0.08 in - ()
Sea Level Pressure  
Sea Level Pressure 30.24 in    
Wind  
Wind Speed 3 mph ()    
Max Wind Speed 8 mph    
Max Gust Speed -    
Visibility 2.9 miles    
Events Rain    
T = Trace of Precipitation, MM = Missing Value Source: Averaged Metar Reports

Daily Weather History Graph

Daily Weather History Graph

Search for Another Location

Airport or City:

Trip Planner

Search our weather history database for the weather conditions in past years. The results will help you decide how hot, cold, wet, or windy it might be!

Date:

Astronomy

Jan. 31, 2014 Rise Set
Actual Time 6:52 AM +0430 5:21 PM +0430
Civil Twilight 6:25 AM +0430 5:47 PM +0430
Nautical Twilight 5:55 AM +0430 6:18 PM +0430
Astronomical Twilight 5:25 AM +0430 6:47 PM +0430
Moon 6:46 AM +0430 (1/31) 6:09 PM +0430 (1/31)
Length of Visible Light 11h 22m
Length of Day
10h 29m
New Moon, 0% of the Moon is Illuminated
Jan 31
New Moon
Feb 6
First Quarter
Feb 15
Full
Feb 22
Last Quarter
Mar 1
New

Hourly Weather History & Observations

Time (+0430) Temp. Windchill Dew Point Humidity Pressure Visibility Wind Dir Wind Speed Gust Speed Precip Events Conditions
12:20 AM 39.2 °F - 26.6 °F 61% 30.24 in 0.6 mi Calm Calm - N/A   Smoke
1:20 AM 35.6 °F - 26.6 °F 70% 30.24 in 0.6 mi Calm Calm - N/A   Smoke
2:20 AM 37.4 °F - 28.4 °F 70% 30.24 in 0.6 mi Variable 1.2 mph - N/A   Smoke
3:20 AM 35.6 °F 32.8 °F 26.6 °F 70% 30.24 in 0.6 mi Variable 3.5 mph - N/A   Smoke
4:20 AM 35.6 °F 29.9 °F 26.6 °F 70% 30.24 in 1.2 mi East 6.9 mph - N/A   Smoke
5:20 AM 35.6 °F 30.7 °F 26.6 °F 70% 30.24 in 1.9 mi Variable 5.8 mph - N/A   Haze
6:20 AM 37.4 °F 33.8 °F 26.6 °F 65% 30.24 in 2.5 mi SE 4.6 mph - N/A   Haze
7:06 AM 35.6 °F 32.8 °F 26.6 °F 70% 30.27 in 1.2 mi ESE 3.5 mph - N/A   Haze
7:20 AM 35.6 °F 30.7 °F 26.6 °F 70% 30.27 in 1.2 mi SSE 5.8 mph - N/A   Haze
8:20 AM 39.2 °F 37.0 °F 28.4 °F 65% 30.27 in 1.9 mi East 3.5 mph - N/A   Haze
9:20 AM 42.8 °F - 26.6 °F 53% 30.30 in 1.9 mi SE 2.3 mph - N/A   Haze
10:20 AM 44.6 °F - 28.4 °F 53% 30.30 in 1.6 mi Calm Calm - N/A   Haze
11:20 AM 46.4 °F 43.5 °F 24.8 °F 43% 30.30 in 2.5 mi North 5.8 mph - N/A   Haze
12:20 PM 50.0 °F - 26.6 °F 40% 30.27 in 3.1 mi Variable 4.6 mph - N/A   Haze
1:20 PM 50.0 °F - 26.6 °F 40% 30.24 in 3.7 mi Variable 4.6 mph - N/A   Mostly Cloudy
2:20 PM 50.0 °F - 26.6 °F 40% 30.21 in 5.0 mi West 4.6 mph - N/A   Mostly Cloudy
3:20 PM 50.0 °F - 26.6 °F 40% 30.21 in 5.0 mi Variable 3.5 mph - N/A   Mostly Cloudy
4:20 PM 48.2 °F - 28.4 °F 46% 30.21 in 5.0 mi NW 8.1 mph - N/A   Mostly Cloudy
5:20 PM 46.4 °F 42.9 °F 32.0 °F 57% 30.21 in 5.0 mi SW 6.9 mph - N/A Rain Rain
6:20 PM 42.8 °F - 33.8 °F 70% 30.21 in 4.3 mi WSW 2.3 mph - N/A   Mostly Cloudy
7:20 PM 42.8 °F 39.3 °F 33.8 °F 70% 30.21 in 4.3 mi SE 5.8 mph - N/A   Mostly Cloudy
8:20 PM 42.8 °F 40.1 °F 33.8 °F 70% 30.21 in 5.0 mi ESE 4.6 mph - N/A   Mostly Cloudy
9:20 PM 41.0 °F - 33.8 °F 76% 30.24 in 5.0 mi Variable 1.2 mph - N/A   Mostly Cloudy
10:20 PM 41.0 °F 38.0 °F 33.8 °F 76% 30.21 in 4.3 mi Variable 4.6 mph - N/A   Mostly Cloudy
11:20 PM 42.8 °F - 33.8 °F 70% 30.21 in 5.0 mi Variable 1.2 mph - N/A   Mostly Cloudy